sat.trackr.live / text

‹ back to catalog

STARLINK-31084

NORAD 58630 · 2023-203N

PAYLOAD ACTIVE UNKNOWN

§ Identity

Operator
Country
US
Launch date
2023-12-23
Launch site
AFETR
Launch vehicle
Mass (kg)
RCS (m²)

Purposes: comms

External: N2YO · Heavens-Above · Gunter

§ Orbital elements

Epoch: 2026-09-20T16:45:52.878816Z

Period
94.27 min
Inclination
43.0011°
Eccentricity
0.0001175
Mean motion
15.27578354 rev/d
Perigee alt
482.2 km
Apogee alt
483.9 km
Semi-major
6,861.2 km
B*
-1.3854e-5
RAAN
49.3790°
Arg perigee
269.5033°
Mean anomaly
90.5684°
Rev number
15,334

§ Raw data

STARLINK-310841 58630U 23203N   26263.69852869 -.00000643  00000+0 -13854-4 0  99932 58630  43.0011  49.3790 0001175 269.5033  90.5684 15.27578354153342

JSON: /api/v1/satellites/58630 · /tle

For live sub-satellite position, see the globe view (requires WebGL).

§ Visibility from observer

Set your observer location to see the next 7 days of passes ≥ 10°. The values pass through the URL so the page stays shareable.

No JS? Fill the form by hand. The geolocation button needs JavaScript.